Flag for U.S.A. Weather past 2 weeks in Fort Wayne, Indiana, U.S.A.

Now
51 °F

Passing clouds.


Feels Like: 48 °F
Forecast: 40 / 62 °F
Wind: 8 mph from Northwest

Location: Fort Wayne International Airport

Current Time: Sep 22, 2014 at 1:05:50 AM

Latest Report: Sep 21, 2014 at 11:54 PM


Visibility: 10 mi

Pressure: 30.08 "Hg

Humidity: 80%

Dew point: 45 °F

Location of Fort WayneLocation

Historic Weather in Fort Wayne — Graph

°F

Fort Wayne temperature yesterday

Maximum temperature yesterday: 69 °F (at 4:54 AM)
Minimum temperature yesterday: 51 °F (at 11:54 PM)
Average temperature yesterday: 63 °F

Past Weeks' High & Low Weather Summary

 TemperatureHumidityPressure
High79 °F (Sep 20, 2:54 PM)97% (Sep 7, 7:54 AM)30.35 "Hg (Sep 7, 7:54 AM)
Low43 °F (Sep 17, 5:54 AM)43% (Sep 8, 6:54 PM)29.64 "Hg (Sep 10, 7:01 PM)
Average59 °F79%30.09 "Hg
* Reported Sep 6 11:54 PM — Sep 21 11:54 PM, Fort Wayne, Weather by CustomWeather, © 2014

Note: Actual official high and low records may vary slightly from our data, if they occured in-between our weather recording intervals... More about our weather records

Advertising

Fort Wayne weather history for previous 24 hours

 ConditionsComfort  
Time TempWeatherWind HumidityBarometerVisibility
11:54 PM
Sep 21
51 °FPassing clouds.8 mph80%30.08 "Hg10 mi
10:54 PM52 °FPassing clouds.9 mph83%30.06 "Hg10 mi
9:54 PM54 °FPassing clouds.12 mph80%30.03 "Hg10 mi
8:54 PM56 °FPassing clouds.15 mph75%30.01 "Hg10 mi
7:54 PM57 °FPartly sunny.13 mph74%29.98 "Hg10 mi
6:54 PM59 °FPartly sunny.21 mph69%29.95 "Hg10 mi
5:54 PM61 °FBroken clouds.17 mph67%29.90 "Hg10 mi
4:54 PM62 °FBroken clouds.13 mph73%29.88 "Hg10 mi
3:54 PM62 °FLight rain. Partly sunny.23 mph65%29.85 "Hg9 mi
2:54 PM64 °FPartly sunny.20 mph61%29.84 "Hg10 mi
1:54 PM62 °FPartly sunny.13 mph67%29.84 "Hg10 mi
12:54 PM64 °FBroken clouds.21 mph61%29.82 "Hg10 mi
11:54 AM66 °FPartly sunny.20 mph61%29.79 "Hg10 mi
10:54 AM64 °FScattered clouds.20 mph68%29.79 "Hg10 mi
9:54 AM63 °FPartly sunny.17 mph78%29.80 "Hg10 mi
8:54 AM62 °FScattered clouds.16 mph83%29.79 "Hg10 mi
7:54 AM63 °FPassing clouds.18 mph87%29.76 "Hg10 mi
6:54 AM67 °FPassing clouds.15 mph87%29.73 "Hg10 mi
5:54 AM69 °FMostly cloudy.17 mph90%29.71 "Hg8 mi
4:54 AM69 °FMostly cloudy.15 mph93%29.71 "Hg7 mi
3:54 AM68 °FPassing clouds.15 mph93%29.73 "Hg7 mi
3:03 AM68 °FLight rain. Mostly cloudy.14 mph93%29.76 "Hg8 mi
2:54 AM68 °FLight rain. Mostly cloudy.13 mph93%29.75 "Hg7 mi
1:54 AM67 °FMostly cloudy.12 mph93%29.78 "Hg10 mi
Weather by CustomWeather, © 2014

See weather overviewHow to use our weather pages